Regional Weather Roundup
Issued by NWS Grand Forks, ND

Home | Current Version | Previous Version | Text Only | Print | Product List | Glossary Off
Versions: 1 2 3 4 5 6 7 8 9 10 11 12 13 14 15 16 17 18 19 20 21 22 23 24 25 26 27 28 29 30 31 32 33 34 35 36 37 38 39 40 41 42 43 44 45 46 47 48 49 50

000
ASUS43 KFGF 200931
RWRFGF
PRAIRIE TO PINES  WEATHER ROUNDUP
NATIONAL WEATHER SERVICE EASTERN NORTH DAKOTA/GRAND FORKS ND
400 AM CDT WED AUG 20 2014

 **SATELLITE DATA USED TO AUGMENT SKY COVER AT AUTOMATED STATIONS**
 *****  WEATHER ACROSS EASTERN NORTH DAKOTA  *****

CITY           SKY/WX    TMP DP  RH WIND       PRES   REMARKS
GRAND FORKS    CLEAR     63  61  93 SE6       29.76S
GRAND FRKS AFB CLEAR     65  65  99 E3        29.76F
GRAND FRKS NWS   N/A     54 N/A N/A SE5         N/A
DEVILS LAKE    CLEAR     66  63  88 SE8       29.74R
FARGO          CLEAR     66  61  84 SE6       29.77R
WAHPETON ARPT  SUNNY     63  59  88 SE3       29.79S
$$

 ***** WEATHER ACROSS CENTRAL AND WESTERN NORTH DAKOTA  *****

CITY           SKY/WX    TMP DP  RH WIND       PRES   REMARKS
BISMARCK       CLEAR     67  62  84 SE8       29.70F
MINOT          PTCLDY    65  60  84 SE8       29.67F
JAMESTOWN      MOCLDY    66  63  90 S6        29.76R
MINOT AFB      PTCLDY    63  62  99 SE8       29.66F
GARRISON         N/A     67  62  84 SE7       29.69S
WILLISTON      MOCLDY    67  60  78 CALM      29.63S
DICKINSON      CLEAR     63  57  81 S8        29.66F
HETTINGER      PTCLDY    67  60  78 SE7       29.70F
$$

 *****  OTHER AIRPORT OBSERVATIONS IN OUR AREA  *****

CITY           SKY/WX    TMP DP  RH WIND       PRES   REMARKS
WALHALLA         N/A     66  66 100 SE9         N/A
GRAFTON AIRPOR FAIR      61  61 100 SE7       29.76S
VALLEY CITY AR FAIR      64  64 100 SE5       29.77S
CANDO          FAIR      64  63  94 SE8       29.74S
CAVALIER APRT  FAIR      63  59  88 SE5       29.75S
GWINNER        SUNNY     64  64 100 SE3       29.78S
ROLLA          FOG       57  57 100 S3        29.75S VSB 1/4
 ***** THE ABOVE OBSERVATIONS ARE NON NWS ARE NOT QUALITY
       CONTROLLED AND MAY MIS-REPORT RAIN FOR SNOW...
$$

  *****  WEATHER ACROSS NORTHERN MINNESOTA  *****

CITY           SKY/WX    TMP DP  RH WIND       PRES   REMARKS
FLAG ISLAND    CLEAR     66  63  88 S10       29.81R
WARROAD        CLOUDY    63  59  88 SE5       29.82S
ROSEAU         CLEAR     63  57  82 SE7       29.80F
HALLOCK        CLEAR     63  61  94 SE8       29.76S
THF RVR FALLS  CLEAR     61  59  94 SE6       29.80S
BAUDETTE       CLEAR     60  58  92 SE3       29.83R
WASKISH        PTCLDY    57  55  94 CALM      29.83S
CROOKSTON      CLEAR     61  59  94 S7        29.79R
$$
  *****  WEATHER ACROSS CENTRAL AND WEST MINNESOTA  *****

CITY           SKY/WX    TMP DP  RH WIND       PRES   REMARKS
FOSSTON        CLEAR     59  55  88 SE5       29.82S
BEMIDJI        CLEAR     57  57  99 CALM      29.83S FOG
PARK RAPIDS    CLEAR     61  60  97 SE3       29.83R
ELBOW LAKE     FAIR      65  63  90 E7        29.80S
WADENA         CLEAR     57  57 100 CALM      29.83R FOG
DETROIT LAKES  PTCLDY    64  63  94 SE5       29.83R
MOORHEAD       CLEAR     66  66 100 SE5       29.79S
FERGUS FALLS   CLEAR     66  63  88 E3        29.80S
MORRIS MN      CLEAR     63  63 100 E7        29.79F FOG
STAPLES        CLEAR     59  59 100 CALM      29.83R
$$
  *****  WEATHER ELSEWHERE ACROSS MINNESOTA  *****

CITY           SKY/WX    TMP DP  RH WIND       PRES   REMARKS
DULUTH         FOG       59  57  93 SE5       29.85R VSB 3/4
INTRNTL FALLS  FOG       50  49  96 CALM      29.84S VSB 1/4
ELY            CLOUDY    61  59  94 CALM      29.85R
CLOQUET        FOG       61  57  88 CALM      29.85S VSB 1/4
WHEATON        PTCLDY    59  57  94 SE5       29.80S
BRAINERD       CLOUDY    57  57 100 CALM      29.84R FOG
HIBBING        FOG       52  50  93 CALM      29.85R VSB 3/4
ALEXANDRIA     CLEAR     65  62  90 SE6       29.83R
SAINT CLOUD    CLEAR     64  62  93 E5        29.81S
MINNEAPOLIS    PTCLDY    67  65  93 CALM      29.81S
$$

  *****  WEATHER ACROSS SOUTH DAKOTA  *****

CITY           SKY/WX    TMP DP  RH WIND       PRES   REMARKS
SIOUX FALLS    CLOUDY    68  63  84 E3        29.79S
BROOKINGS      NOT AVBL
WATERTOWN      MOCLDY    64  60  87 S5        29.81R
HURON          LGT RAIN  67  62  84 SE6       29.74F
SISSETON         N/A     62  62 100 SE5       29.77S
ABERDEEN       CLOUDY    63  61  93 SE8       29.77R
MITCHELL       CLOUDY    70  64  81 SE7       29.75F
PIERRE         MOCLDY    68  59  73 SE16      29.69F
MOBRIDGE       CLEAR     67  65  93 SE10      29.68F
RAPID CITY     MOCLDY    68  55  63 SE6       29.72F
$$

  *****  SOME WEATHER IN NEARBY STATES *****

CITY           SKY/WX    TMP DP  RH WIND       PRES   REMARKS
GLASGOW MT     LGT RAIN  70  51  51 E8        29.58S
GREAT FALLS MT MOCLDY    61  52  72 CALM      29.77F
CHEYENNE WY    CLOUDY    63  51  65 W3        29.96F
SCOTTSBLUFF NE CLOUDY    66  59  78 N5        29.81S
OMAHA NE       CLOUDY    75  67  76 SE7       29.76F
DES MOINES IA  MOCLDY    74  65  73 VRB5      29.80F THUNDER
DAVENPORT IA   CLEAR     60  57  89 CALM      29.84S
CHICAGO IL     CLEAR     68  60  75 W5        29.81R
EAU CLAIRE WI  CLEAR     59  59 100 N5        29.82S FOG
LA CROSSE WI   PTCLDY    66  63  90 S5        29.81R
$$

  *****  SOME NATIONAL WEATHER *****

CITY           SKY/WX    TMP DP  RH WIND       PRES   REMARKS
LA GUARDIA NY  MOCLDY    71  63  75 SE3       29.95R
RALEIGH NC     FOG       72  70  94 E5        29.93R VSB 1/2
ATLANTA GA     PTCLDY    73  71  93 W5        29.97R
NEW ORLEANS LA PTCLDY    78  75  90 S5        29.98S
OKLAHOMA CITY  PTCLDY    75  67  76 S8        29.87S
ALBUQUERQUE NM CLOUDY    69  51  52 SE3       30.04S
SALT LAKE CITY HVY RAIN  63  60  90 E10       29.93R FOG
LOS ANGELES CA CLOUDY    69  61  75 CALM      29.89S
BOISE ID       PTCLDY    70  44  39 CALM      29.79S
SEATTLE WA     MOCLDY    59  51  75 S7        29.88R
$$

*** WEATHER ACROSS MANITOBA...SASKATCHEWAN AND ONTARIO ***
                ***ONTARIO***

CITY           SKY/WX    TMP DP  RH WIND       PRES   REMARKS
GERALDTON      CLOUDY    55  55 100 NE6       29.84S
THUNDER BAY    CLOUDY    61  61 100 SW2       29.81S
SIOUX LOOKOUT  CLEAR     55  55 100 SE2       29.86R
TORONTO        MOCLDY    63  59  88 NE5       29.84R
BIG TROUT LK   CLEAR     64  55  72 SE6       29.86R
PICKLE LAKE    NOT AVBL
DRYDEN         PTCLDY    57  55  94 CALM      29.86R FOG
KENORA         CLEAR     61  59  94 S2        29.84S
$$
                *** MANITOBA***

CITY           SKY/WX    TMP DP  RH WIND       PRES   REMARKS
BRANDON        FOG       59  59 100 E8        29.71F VSB 1
DAUPHIN        CLEAR     59  55  88 N3        29.69F
ISLAND LAKE    PTCLDY    66  61  82 S6        29.78S
PILOT MOUND      N/A     61  59  94 SE8         N/A
THE PAS        CLEAR     64  63  94 SE8       29.65S
THOMPSON       CLOUDY    64  64 100 E3        29.68S
WINNIPEG       PTCLDY    64  61  88 SE8       29.77R
LYNN LAKE      FOG       55  54  94 MISG      29.72R VSB 1
CHURCHILL      LGT RAIN  46  46 100 SE14      29.81S FOG
GILLAM         PTCLDY    59  59 100 E6        29.72R
$$
                ***SASKATCHEWAN***

CITY           SKY/WX    TMP DP  RH WIND       PRES   REMARKS
ESTEVAN        PTCLDY    63  61  94 E6        29.64R
KINDERSLEY     LGT RAIN  63  61  94 N15       29.62F
LLOYDMINSTER   CLOUDY    59  54  82 VRB2      29.68S
PRINCE ALBERT  MOCLDY    63  61  94 NE2       29.62R THUNDER
REGINA         PTCLDY    64  59  82 E12       29.61F
YORKTON        MOCLDY    63  61  94 NW7       29.67R FOG
N. BATTLEFORD  CLOUDY    63  59  88 N7        29.65F
LA RONGE       CLOUDY    59  57  94 CALM      29.66
SASKATOON      MOCLDY    63  61  94 NE9       29.60F THUNDER
SWIFT CURRENT  CLEAR     59  55  88 N5        29.64F
$$
NOTE: THESE ARE AUTOMATED STATIONS WITH LIMITED QUALITY CONTROL
      "FAIR" INDICATES FEW OR NO CLOUDS BELOW 12,000 FEET WITH NO
      SIGNIFICANT WEATHER AND/OR OBSTRUCTIONS TO VISIBILITY.
      SKY/WX - SKY CONDITION AND SIGNIFICANT WEATHER.
      TMP - AIR TEMPERATURE.    DP   - DEWPOINT TEMPERATURE.
      RH  - RELATIVE HUMIDITY.  PRES - PRESSURE.
      HX  - HEAT INDEX.         WCI  - WIND CHILL INDEX.
$


USA.gov is the U.S. government's official web portal to all federal, state and local government web resources and services.